Theta_e
327 329 327 327 328 328 327 325 326 331 331 329 327 324 322 320 321 324 326 328 328 332 340 346 335 337 358 361 356 355 355 356 355 356 356 355 355 355 355 354 354 354 353 351 351 352 352 352 353 353 353 354 353 353 353 354 352 351 350 351 352 353 353 353 352 352 351 352 352 353 354 354 353 353 354 351 347 349 353 353 353 353 353 353 352 353
327 329 328 327 328 329 329 327 328 329 328 328 326 322 321 319 320 323 324 325 326 329 335 342 338 337 354 359 357 356 355 356 355 356 356 355 355 355 355 355 354 353 352 352 351 351 352 352 352 353 353 354 353 353 354 354 353 353 352 352 352 353 354 354 353 352 352 351 351 352 353 353 353 354 354 352 349 351 354 353 353 353 353 353 352 353
325 327 328 327 329 330 330 329 327 327 326 325 324 320 318 319 320 323 324 325 325 324 329 338 334 336 352 358 357 356 356 355 354 355 355 355 355 355 355 354 354 354 353 353 352 351 351 351 352 352 353 353 353 354 354 354 354 353 353 353 353 354 354 354 354 353 352 351 350 351 352 353 353 353 354 353 352 352 354 354 353 353 352 352 352 353
322 324 328 327 327 329 329 328 326 326 326 324 322 318 316 319 319 320 325 328 326 325 334 341 338 344 358 360 359 356 355 356 353 353 354 353 355 354 354 354 353 354 354 354 352 351 351 351 351 352 352 353 353 353 353 354 354 353 353 353 353 354 354 354 354 353 352 351 351 351 352 353 353 354 354 354 353 353 353 354 353 352 352 353 353 353
323 324 327 327 327 328 327 327 328 326 324 324 324 320 319 321 320 321 325 329 327 326 336 339 335 349 363 360 361 358 354 356 354 355 355 353 354 353 353 353 353 353 354 353 353 352 351 351 350 351 352 352 353 353 353 353 354 353 354 353 353 353 354 354 354 354 353 352 352 352 353 353 354 354 354 354 354 354 354 353 353 352 352 353 353 353
325 324 325 325 326 327 326 327 327 326 323 324 325 325 324 323 323 324 325 325 321 321 333 333 324 339 360 357 359 359 357 358 356 355 356 354 354 353 354 354 353 353 353 353 353 352 351 350 350 351 351 352 352 353 353 353 354 353 354 353 353 353 354 354 354 354 354 353 353 353 353 353 354 354 354 354 354 354 354 353 353 353 353 353 353 354
324 324 324 325 325 326 327 326 325 326 323 321 326 328 326 325 323 323 322 320 317 319 332 333 323 331 346 350 356 359 359 359 357 356 355 354 355 353 353 352 352 353 352 352 352 352 351 350 350 350 350 352 352 352 352 353 353 353 353 353 353 353 353 354 354 354 354 354 353 352 353 353 353 354 354 354 354 354 354 353 353 354 354 354 354 354
325 324 323 324 324 324 325 323 325 327 322 321 328 330 328 327 325 324 321 318 320 323 326 330 330 325 327 339 352 357 359 359 358 357 354 354 354 353 353 352 352 352 352 352 351 351 351 350 350 349 350 351 351 352 352 352 353 353 353 353 353 353 353 354 354 355 354 354 354 353 353 353 353 353 353 354 354 354 354 353 354 354 354 355 355 355
325 324 323 323 323 323 322 323 326 326 323 324 328 329 327 327 325 325 322 319 323 321 314 321 329 321 323 342 351 353 358 358 358 357 354 353 353 352 352 351 351 351 351 351 351 351 350 349 349 349 350 351 351 352 352 352 353 352 353 353 353 353 353 354 354 354 354 354 354 353 353 353 352 353 353 353 354 354 354 354 354 355 354 355 355 355
324 323 323 323 322 322 322 324 326 324 324 327 326 327 326 324 326 328 325 319 320 318 313 317 323 317 322 341 345 345 353 355 356 357 353 352 352 351 352 351 350 351 350 351 350 350 349 348 349 349 349 350 350 351 351 352 352 352 353 353 353 353 353 353 353 354 354 354 354 353 353 353 352 352 353 353 353 353 354 354 354 355 355 355 356 356
325 324 324 323 323 323 323 325 325 324 325 326 326 326 323 325 326 330 332 323 315 315 314 316 321 317 317 329 339 342 349 353 354 354 352 351 350 350 350 350 349 349 349 350 349 349 349 348 348 348 348 349 349 351 351 351 352 352 352 352 352 353 352 353 353 353 354 353 354 353 353 353 352 352 353 353 353 353 353 354 355 355 355 355 355 355
324 324 326 326 325 323 324 324 323 324 324 324 327 323 321 326 324 319 322 320 314 314 315 317 323 319 313 322 338 342 343 348 350 351 351 351 350 349 349 348 348 349 348 348 349 349 349 347 348 347 347 348 348 349 351 351 351 351 352 352 352 352 352 352 353 353 353 353 353 353 353 352 352 352 352 352 352 353 353 354 354 354 355 355 355 355
322 324 325 326 327 324 323 324 322 323 323 323 327 321 317 322 320 314 316 317 316 316 319 321 320 316 316 328 344 343 339 341 344 347 348 348 349 347 347 348 347 347 347 347 348 348 348 348 347 346 347 348 348 348 349 350 351 351 352 352 351 351 352 352 352 353 353 353 353 353 353 352 352 352 351 352 352 352 353 353 353 354 354 354 354 354
318 321 323 322 325 325 324 323 319 321 324 322 322 319 317 319 317 317 319 318 317 317 321 323 319 317 319 331 342 340 338 339 338 342 344 345 348 346 345 346 346 346 346 346 347 347 348 348 347 346 346 347 347 347 348 349 350 351 351 352 352 351 351 351 352 352 353 353 353 353 353 352 352 352 351 352 352 352 352 352 353 353 353 354 354 353
316 318 323 321 322 326 324 323 323 325 324 321 323 322 318 320 319 318 318 317 318 320 321 320 319 319 320 328 338 333 334 339 336 337 340 342 344 344 343 344 344 346 346 345 347 346 347 347 346 345 345 346 347 347 348 349 350 350 351 351 352 351 351 351 352 352 352 353 353 353 353 353 353 352 351 352 352 352 352 352 352 352 352 353 353 353
315 317 324 322 322 325 325 324 325 325 322 320 324 322 317 320 320 317 320 321 319 317 318 319 323 330 331 333 341 333 331 338 336 336 338 338 341 340 341 343 342 344 345 345 346 346 347 347 345 345 345 345 346 346 348 348 348 350 350 351 351 351 351 351 351 352 352 353 353 353 353 353 353 352 352 352 352 351 351 351 352 351 352 352 352 352
314 317 324 321 321 325 325 326 324 323 323 321 319 318 319 323 319 315 318 319 315 313 319 321 323 330 331 332 342 337 332 338 338 337 336 335 338 338 338 341 341 342 344 344 346 346 347 347 344 344 344 345 346 346 347 347 348 349 350 350 351 351 351 351 351 352 352 353 353 353 353 353 353 352 352 352 352 352 351 351 351 351 351 351 351 351
318 318 324 321 321 322 322 326 324 323 325 321 316 318 320 322 321 320 317 315 314 315 318 320 319 322 321 328 346 344 335 339 338 338 338 335 336 336 336 338 338 341 342 342 345 345 346 347 345 344 344 344 346 346 347 347 348 349 349 350 351 351 351 351 351 352 352 352 353 352 353 352 353 353 352 352 352 352 352 351 351 351 351 351 351 350
320 316 320 322 322 321 321 323 322 322 323 320 320 322 322 318 316 319 319 316 316 316 317 319 322 322 319 326 342 341 338 342 339 339 339 337 337 336 335 336 336 338 340 341 342 343 345 346 345 344 344 344 345 346 346 347 347 348 349 349 350 350 351 351 351 352 352 352 353 353 353 352 353 353 352 352 352 352 352 352 351 351 352 352 351 351
321 317 318 322 322 321 321 320 317 318 321 321 321 320 322 320 316 316 318 317 317 317 317 317 318 318 323 335 343 343 345 343 338 341 341 338 338 337 335 336 335 336 338 339 340 341 343 344 343 343 344 344 344 345 346 346 347 347 348 349 350 350 350 351 351 351 352 352 352 353 353 353 352 352 353 352 352 352 352 352 352 352 352 352 352 351
322 319 317 320 321 318 319 320 318 319 319 318 318 316 316 318 317 316 316 316 317 317 317 317 312 315 330 345 344 345 351 346 339 341 341 339 339 337 337 337 336 336 336 337 338 339 340 342 342 343 343 344 344 345 346 346 347 347 348 349 349 350 350 350 351 351 352 352 353 353 353 353 353 352 353 352 352 352 352 352 352 352 353 352 352 352
327 322 315 315 316 314 318 322 321 322 322 319 318 317 315 316 316 315 315 316 315 316 320 319 310 314 335 346 342 346 352 349 344 340 339 340 339 338 338 337 338 338 336 336 337 337 338 340 341 342 342 344 344 344 345 346 347 347 348 349 349 350 350 350 351 351 352 352 353 353 353 353 353 353 353 353 352 353 352 353 353 353 353 353 352 352
329 327 318 315 318 318 322 324 321 321 323 322 322 320 319 319 315 313 314 316 315 316 322 321 313 318 339 344 341 349 354 348 344 339 339 340 337 338 340 337 339 340 338 336 335 336 338 338 339 340 341 343 343 344 345 345 347 347 348 349 349 350 350 350 351 351 351 352 352 353 353 353 353 353 353 353 353 353 353 353 353 353 353 353 353 352
328 329 322 318 322 323 322 324 323 323 322 319 321 322 319 319 317 315 319 322 318 314 317 319 313 318 341 350 340 342 347 343 340 338 338 339 337 338 339 339 341 342 342 340 337 337 338 337 339 341 342 342 343 343 344 345 346 347 348 348 349 350 350 350 351 351 352 352 352 353 353 353 354 353 353 353 353 353 353 353 353 353 353 353 353 353
326 331 324 317 318 317 317 321 321 321 321 321 322 323 320 320 320 317 322 322 317 314 316 316 312 321 352 361 341 337 340 340 340 340 338 338 338 339 340 341 343 345 345 346 343 340 340 339 341 343 344 342 341 343 344 344 346 347 347 349 348 349 350 350 351 351 351 352 352 353 353 353 354 354 354 354 354 354 353 353 354 353 353 354 353 353
326 334 327 319 319 317 316 321 322 320 322 322 323 323 321 321 319 316 318 316 316 320 318 314 317 333 354 351 337 337 339 340 341 341 338 340 340 340 344 345 346 349 350 350 348 344 342 342 344 344 345 342 339 342 344 343 346 346 347 348 348 349 350 351 352 352 352 353 353 353 353 353 354 354 354 354 354 354 354 354 354 354 354 354 353 354
328 335 331 324 325 323 322 326 328 325 322 321 321 322 321 323 320 317 315 313 319 325 317 317 327 331 332 334 336 340 340 339 341 342 343 349 347 343 345 346 347 349 348 348 348 346 345 345 345 345 345 341 338 341 343 343 345 346 347 348 348 349 350 350 351 352 352 353 353 353 353 353 354 354 354 354 354 354 354 354 354 354 354 354 354 354
328 331 330 327 327 326 324 324 324 323 324 323 323 322 320 322 323 318 314 316 327 323 313 324 337 324 322 337 342 341 342 340 343 343 341 346 348 343 341 343 345 347 348 348 348 348 349 348 346 346 345 341 338 339 341 343 344 345 347 348 348 349 350 351 352 352 353 353 353 354 354 354 354 354 354 355 354 354 355 354 355 354 355 355 354 354
325 328 328 325 323 322 321 322 322 322 324 324 324 322 320 321 320 317 316 323 328 319 312 327 338 326 329 344 341 342 345 341 342 342 336 339 346 347 348 346 344 344 346 347 349 349 350 348 347 347 345 343 340 339 340 342 343 345 346 347 349 349 349 351 352 352 353 353 354 354 354 354 354 354 354 354 354 355 355 355 355 355 355 355 355 354
323 330 329 322 321 322 320 321 322 322 323 323 323 323 320 320 320 318 321 323 325 322 321 331 336 331 333 338 338 343 344 340 343 343 338 343 350 353 355 350 343 341 342 344 346 346 347 347 347 347 347 347 343 340 340 341 343 345 346 347 348 349 350 351 352 352 353 354 354 354 354 355 355 355 355 355 354 355 355 355 355 355 355 355 355 355
321 327 326 321 322 323 322 322 322 320 321 322 323 324 322 320 320 318 320 322 322 323 324 328 332 333 333 336 339 339 336 332 333 336 340 345 348 352 355 351 347 344 342 342 344 344 345 346 347 347 347 348 346 341 339 341 342 344 345 347 348 349 350 350 352 353 353 354 355 354 355 355 355 356 356 355 355 355 355 355 355 355 356 355 355 355
320 324 325 323 324 326 323 321 320 319 321 323 323 326 325 321 320 319 320 324 323 322 324 322 322 327 334 337 335 333 334 334 333 336 340 342 346 352 355 356 359 354 345 342 343 345 345 344 346 348 346 345 343 340 340 341 342 344 346 347 348 349 350 351 352 353 353 354 354 354 355 355 355 356 356 356 356 356 356 356 355 355 355 355 355 355
320 322 323 324 326 329 324 319 320 321 324 323 320 324 326 322 323 322 321 325 325 322 323 320 319 326 333 334 333 332 332 331 331 334 334 338 350 360 358 357 360 355 346 342 341 344 345 342 343 345 344 343 341 340 341 342 342 344 346 346 348 349 349 351 352 353 354 354 355 355 355 355 356 356 356 356 356 356 356 356 356 356 356 355 355 355
322 322 324 325 326 328 323 318 322 326 325 323 323 330 333 328 325 322 321 325 325 323 323 322 325 330 329 330 332 329 328 335 346 349 343 344 357 371 370 361 355 351 346 343 342 343 343 343 343 343 341 340 340 340 342 342 343 344 345 346 348 349 350 351 352 353 354 354 355 355 355 355 356 356 356 356 356 356 356 356 356 356 356 356 356 355
319 320 324 324 325 326 323 323 328 330 326 323 327 335 337 334 331 328 324 323 322 324 323 325 328 328 328 332 328 325 342 363 370 367 357 351 356 368 378 374 363 356 352 348 346 345 346 348 347 345 342 339 339 341 342 343 343 344 345 347 348 349 350 351 352 353 354 354 355 355 355 356 356 356 356 356 356 357 357 356 357 356 356 356 356 355
315 317 321 323 324 325 326 328 331 329 325 327 334 337 339 340 339 339 335 324 323 328 324 322 329 329 329 331 325 335 364 371 364 360 357 355 355 357 367 371 363 356 351 345 344 348 350 348 344 343 341 339 340 342 342 343 345 345 346 347 348 350 350 351 352 353 354 354 355 355 356 356 356 356 357 356 357 357 357 357 357 357 357 356 356 356
313 315 319 321 323 324 326 328 330 328 328 337 344 341 338 340 339 341 345 341 340 344 335 324 325 328 332 332 328 341 360 361 357 356 352 351 354 351 354 356 352 351 351 345 343 346 344 340 337 338 339 339 341 342 342 344 345 346 347 348 348 350 351 351 353 353 353 354 355 355 356 356 357 357 357 357 357 357 357 357 357 357 357 357 356 356
312 314 317 319 322 324 324 324 328 333 335 340 342 338 335 337 336 337 342 346 347 347 343 336 329 328 335 339 335 339 349 349 351 359 354 351 352 349 349 351 347 349 350 347 348 350 345 342 340 338 339 340 342 343 343 344 345 347 348 349 349 350 350 351 352 353 354 354 355 355 356 356 357 357 357 357 357 357 357 357 357 357 357 357 356 356
311 313 315 316 321 324 323 324 329 335 338 340 340 336 334 336 337 335 337 341 343 340 337 342 341 333 332 339 339 341 344 340 347 362 359 352 350 346 347 349 347 348 348 346 349 352 349 347 344 339 340 341 342 343 344 344 346 348 348 349 350 350 351 351 352 352 353 354 354 355 356 356 357 357 357 358 357 357 357 357 357 358 357 357 357 356
312 313 315 315 318 323 324 327 331 334 337 339 339 337 335 335 336 335 334 337 340 335 333 340 345 342 336 336 337 341 342 337 346 358 352 347 347 344 344 347 347 348 348 346 347 348 348 348 348 345 343 341 342 344 345 345 346 347 348 349 350 350 351 351 352 352 353 353 354 355 356 356 357 357 357 358 358 358 358 358 357 358 357 357 357 357
314 314 316 316 317 320 322 323 327 332 337 341 340 337 335 336 335 333 334 336 334 332 333 340 348 349 344 336 334 344 354 352 351 350 344 343 345 344 342 344 345 345 345 345 346 348 348 349 350 350 349 347 345 344 345 347 347 346 348 349 349 350 351 351 351 351 352 353 355 355 356 357 357 357 357 358 358 358 358 358 358 358 357 357 357 357
320 317 319 318 317 323 327 325 325 330 335 339 340 336 334 339 340 335 332 331 330 332 338 343 347 349 348 346 347 353 353 346 345 346 344 343 345 344 344 344 344 344 345 344 345 346 347 348 349 349 350 351 350 346 345 347 347 348 349 349 349 350 350 351 351 351 352 353 354 355 356 356 356 357 358 358 358 358 358 358 358 358 358 358 357 357
324 323 324 322 321 328 335 331 330 335 336 336 342 342 338 341 341 334 329 329 329 331 336 342 346 346 345 348 349 348 347 345 345 345 343 343 344 344 345 345 345 345 345 344 344 344 345 347 347 346 347 349 351 351 349 347 347 348 349 350 350 350 350 351 351 351 352 352 353 354 355 356 356 357 357 358 358 358 358 358 358 358 358 358 357 357
325 327 329 330 328 331 335 334 334 340 338 336 342 345 339 335 332 329 327 329 329 327 329 336 342 342 343 346 347 346 346 346 344 343 343 343 344 344 345 345 345 345 344 344 344 343 343 344 345 345 345 346 348 352 352 351 350 349 348 350 351 350 350 352 351 351 352 352 352 353 354 355 356 357 357 358 358 358 358 358 358 358 358 358 358 357
324 325 327 331 331 331 336 338 338 340 338 336 339 339 334 330 328 326 327 329 329 327 327 329 332 334 336 340 344 345 344 343 341 341 342 342 343 344 345 344 343 344 344 342 341 342 343 344 344 344 345 344 345 348 349 351 352 351 350 352 352 351 351 351 352 353 352 352 352 353 353 354 355 356 357 358 358 358 358 358 358 358 358 357 357 357
321 321 323 327 329 330 334 338 338 338 336 335 335 334 331 329 327 325 325 327 327 326 325 326 327 328 330 333 337 340 339 338 339 340 341 342 343 343 343 344 343 343 343 342 342 342 343 343 344 344 344 344 344 345 345 347 348 349 350 353 355 355 354 353 352 353 353 352 352 352 352 353 354 355 356 357 357 358 358 358 358 357 357 357 357 357
317 319 321 324 327 330 333 336 337 336 335 334 334 333 331 328 326 324 325 325 325 326 326 327 328 328 328 329 331 334 335 335 338 340 340 341 343 343 344 345 344 343 343 343 342 342 343 343 344 344 344 344 344 344 345 346 346 347 350 353 354 357 358 357 355 353 352 352 353 352 352 352 353 354 355 356 357 358 358 358 358 357 357 357 356 356
316 317 318 320 324 328 333 336 337 334 334 335 337 336 333 330 328 326 326 326 325 326 326 327 329 330 331 331 329 329 331 333 335 338 340 340 341 342 343 344 344 344 343 343 342 343 343 343 344 344 344 344 345 344 345 345 345 346 349 351 353 355 358 360 359 356 354 352 351 351 351 352 352 353 354 355 356 357 357 358 357 357 357 357 357 357
314 315 316 318 320 323 329 335 336 335 334 334 335 335 333 330 329 328 327 326 326 326 326 327 328 329 330 331 330 329 329 331 332 334 336 337 339 340 341 343 343 343 343 343 343 343 343 343 344 344 344 344 344 345 344 344 344 345 347 350 352 354 356 358 359 359 357 355 353 351 350 350 351 351 352 354 356 356 357 357 357 357 357 357 357 357
314 316 317 319 320 323 329 334 337 338 337 335 333 333 330 328 329 330 329 328 327 326 326 327 327 327 328 330 330 330 330 330 330 331 333 334 335 337 338 340 341 341 341 342 343 343 343 343 344 344 344 344 344 344 344 343 343 344 346 348 350 352 353 355 357 357 356 356 354 353 352 351 350 350 351 352 353 355 356 357 357 358 357 357 357 356
317 318 318 319 322 324 328 331 333 336 338 335 333 333 330 328 333 336 332 328 327 325 324 325 326 327 328 329 329 330 330 329 328 330 331 332 332 333 335 337 338 339 339 340 341 341 342 342 342 343 343 343 344 344 343 342 342 344 346 347 348 350 351 352 352 352 352 351 350 349 349 349 348 348 350 351 352 354 354 354 354 355 356 356 356 355
Wind_Speed
6 4 6 8 7 8 8 9 8 5 4 5 4 3 5 5 7 6 5 5 2 2 6 6 8 10 7 8 11 13 13 13 12 12 12 13 12 12 13 13 14 15 13 14 21 25 26 28 29 29 30 31 31 31 31 32 32 33 33 33 33 32 31 31 32 32 31 30 29 28 28 28 28 28 28 28 29 28 27 26 25 24 23 21 21 20
5 9 10 9 8 7 8 8 8 7 6 6 5 4 6 6 8 8 5 6 2 2 7 6 5 8 7 8 9 11 14 14 15 15 15 16 15 13 14 16 15 13 10 12 17 22 26 27 28 29 29 30 31 31 33 34 34 34 34 34 34 33 32 33 34 33 33 33 32 31 30 29 29 29 29 29 29 29 27 26 25 24 23 22 21 21
6 9 9 9 8 7 7 8 9 9 8 6 5 4 6 5 5 7 6 5 2 3 7 7 7 7 5 8 9 13 16 16 17 19 20 20 18 15 15 16 15 12 11 13 15 19 25 27 28 29 28 31 33 33 35 36 35 35 35 35 34 34 34 34 35 35 35 35 34 32 30 29 29 29 30 29 28 28 27 26 25 25 24 23 22 22
6 7 8 10 9 9 7 7 9 7 6 6 5 5 6 4 2 4 5 4 2 4 4 3 4 5 2 5 9 13 14 11 12 15 14 15 17 18 18 17 15 15 15 15 15 16 20 25 28 29 29 32 33 33 34 35 35 36 37 38 37 37 37 36 37 37 36 35 33 31 29 28 27 27 27 27 27 28 27 27 27 26 25 24 22 21
7 6 7 12 11 11 9 6 8 6 5 6 6 7 7 4 4 5 4 5 4 3 2 1 3 6 2 6 8 10 11 9 9 11 10 10 13 14 13 13 14 15 15 15 16 16 17 21 27 31 32 32 32 33 35 37 38 39 40 41 40 39 38 38 38 37 35 33 31 29 26 24 24 24 24 25 27 28 28 28 28 28 26 25 23 22
9 5 6 12 10 11 11 8 8 8 6 6 9 11 9 5 4 4 2 5 5 5 3 2 2 6 3 6 8 6 9 11 9 11 14 13 12 12 11 12 13 13 13 14 15 16 16 20 25 29 31 31 32 35 37 39 41 41 41 41 40 39 38 39 38 37 35 33 32 29 27 25 24 24 25 28 28 29 30 30 29 28 27 26 25 24
7 6 7 10 10 11 11 10 9 9 6 8 8 9 7 7 6 5 3 1 2 5 5 3 4 5 5 5 8 7 11 15 12 12 16 13 12 13 12 12 13 13 13 13 14 15 16 19 22 25 31 33 34 38 39 39 40 40 39 39 40 39 38 38 38 37 36 35 34 33 32 31 28 27 29 30 28 28 30 30 29 28 27 27 26 26
6 9 8 9 9 9 10 9 8 10 8 7 5 9 8 8 8 7 6 5 4 4 5 2 4 4 6 6 8 9 10 13 12 14 14 13 14 15 14 14 14 15 15 14 14 16 17 19 22 26 32 37 39 41 40 39 40 40 40 39 40 40 38 38 38 38 38 38 36 35 34 32 31 31 30 28 26 26 27 28 29 29 28 28 28 27
8 12 13 13 9 7 8 7 9 12 10 4 7 9 7 8 7 6 6 5 3 1 7 6 5 4 7 5 4 8 11 11 14 17 16 15 17 17 16 16 16 15 15 15 15 17 17 20 27 32 35 39 42 41 40 41 42 42 42 41 40 40 39 38 38 39 40 40 38 36 35 33 32 32 30 26 24 25 25 27 29 29 29 29 29 28
6 11 15 13 9 8 7 7 11 13 10 4 5 4 2 4 3 3 5 4 1 2 9 8 5 5 7 4 2 6 9 12 14 15 16 16 17 17 17 16 16 15 14 15 15 16 18 23 31 35 36 38 39 39 40 42 42 41 42 41 40 41 41 40 40 41 42 42 39 37 36 35 34 32 29 26 25 24 25 26 28 29 30 30 30 29
2 4 9 9 8 10 8 7 10 13 10 4 4 3 2 2 2 2 1 2 1 7 9 8 7 6 6 4 5 6 8 13 13 12 13 15 15 16 16 15 16 15 13 14 15 15 18 25 31 31 31 34 34 34 36 37 37 38 39 39 41 42 42 41 41 42 43 43 41 40 39 38 37 33 29 28 27 26 26 27 28 29 30 31 31 30
4 1 4 4 7 9 7 6 7 8 9 5 4 4 1 4 2 0 2 3 6 9 5 7 8 7 8 6 7 8 10 14 14 14 16 18 18 17 16 16 17 16 15 14 15 15 16 19 23 25 28 30 31 31 32 33 34 35 36 38 39 40 41 40 40 42 43 43 42 42 41 40 39 36 33 32 31 29 29 29 29 29 30 31 30 29
6 5 4 3 5 9 8 5 4 4 7 6 4 6 4 3 1 3 2 2 7 7 2 5 6 6 9 6 7 11 11 13 15 16 17 20 21 18 17 18 16 15 16 15 15 15 15 15 16 20 27 29 29 31 33 34 34 34 36 38 39 40 41 40 40 41 42 42 43 42 41 41 40 38 36 35 34 33 32 32 31 30 31 31 30 30
4 5 5 4 3 7 10 7 5 3 5 7 6 6 6 4 3 5 5 3 4 5 3 4 5 3 6 4 9 13 13 14 16 16 17 19 20 20 20 20 17 16 17 16 16 15 15 16 16 19 26 28 29 33 35 35 35 35 36 38 40 40 42 42 42 42 42 43 43 43 43 41 39 38 38 37 36 35 34 34 33 33 33 32 32 32
7 5 7 11 5 7 12 10 8 7 6 7 6 6 5 5 6 5 4 4 4 4 3 2 4 4 3 4 9 13 14 15 15 16 17 16 17 19 19 18 16 16 17 15 15 17 17 18 18 21 26 28 30 33 34 35 36 36 37 38 40 40 41 43 43 43 43 44 44 44 43 42 41 40 39 38 37 36 35 35 35 35 34 33 33 33
9 8 6 9 7 11 13 9 8 8 5 5 5 6 6 5 5 3 4 6 3 1 2 2 3 5 4 5 7 8 11 13 14 15 15 15 16 16 13 12 13 15 16 16 16 17 18 18 19 22 26 28 31 33 33 35 36 37 38 39 41 42 42 43 43 44 44 45 45 44 44 42 41 40 39 38 38 37 37 36 36 36 36 35 34 33
6 7 3 4 5 11 13 10 9 8 5 3 4 7 6 5 7 4 4 2 1 2 4 2 3 6 3 5 6 6 8 10 12 14 15 16 17 14 11 11 13 15 16 17 17 18 19 18 19 23 27 28 30 31 34 37 39 40 39 38 40 41 41 41 43 44 44 43 43 43 44 43 41 40 39 39 39 38 37 37 37 36 36 35 34 32
4 5 3 7 8 10 9 11 10 10 9 6 6 7 3 6 4 4 2 2 2 4 5 2 5 5 3 5 5 5 8 9 11 13 14 16 15 14 12 12 14 16 17 19 19 18 17 17 18 23 28 31 33 35 38 41 42 41 40 40 40 40 41 43 44 44 44 43 42 42 43 42 42 41 41 40 40 38 37 37 37 36 35 34 34 33
2 4 5 8 12 7 5 8 7 7 8 6 5 7 5 3 4 3 2 4 4 4 4 3 5 5 6 5 3 5 9 10 11 12 13 15 14 13 13 13 14 15 15 16 16 15 16 17 18 23 28 31 34 36 39 41 40 39 39 40 41 42 44 45 43 43 43 43 42 42 42 43 43 42 41 40 39 38 37 37 37 37 36 34 33 32
2 3 5 6 8 6 5 6 6 6 7 3 2 5 4 3 4 4 4 4 4 4 3 4 5 5 7 7 6 8 11 11 11 10 11 14 15 14 14 13 14 14 14 14 15 16 17 18 20 25 30 32 34 36 38 38 37 37 39 40 40 41 42 42 41 41 42 42 42 40 40 41 41 41 40 39 38 37 38 38 38 37 36 34 33 33
1 4 5 3 1 5 4 5 9 10 8 5 4 5 4 2 2 3 2 3 4 4 3 3 6 5 5 5 10 11 11 11 12 11 12 14 15 15 15 15 14 14 14 14 15 16 18 18 20 26 32 33 34 35 34 34 36 38 38 38 40 40 39 40 41 42 42 41 40 39 38 39 40 40 40 39 38 38 38 38 38 37 35 34 33 33
2 2 3 2 1 3 4 8 13 15 12 10 7 7 7 4 4 4 4 3 3 5 5 4 6 7 4 5 8 10 10 11 12 13 12 12 14 15 15 16 16 15 15 16 17 17 17 17 17 22 28 29 29 30 31 32 34 35 36 38 40 39 40 41 43 43 42 40 40 40 40 39 39 40 40 39 39 39 39 39 38 36 34 33 33 34
1 1 3 3 3 4 6 8 10 12 14 12 10 9 8 6 6 6 7 4 3 3 2 3 5 9 6 7 9 9 10 10 11 12 12 11 12 13 14 15 15 14 14 15 15 14 14 15 16 19 23 25 27 29 31 32 33 35 37 39 39 39 41 43 43 43 42 40 41 41 40 39 38 39 40 40 40 40 40 39 37 36 34 34 34 34
3 1 3 3 3 3 5 6 5 4 6 8 8 8 8 8 8 8 6 4 4 4 2 2 7 8 5 5 8 8 8 8 7 8 11 11 10 11 13 13 12 12 12 11 10 10 11 13 13 14 16 19 23 27 29 31 33 35 37 38 38 41 44 43 41 41 40 41 41 40 39 39 38 38 40 40 40 39 39 38 37 35 35 34 33 34
3 1 1 0 2 4 4 5 5 4 2 4 5 7 9 11 11 7 3 4 4 7 8 6 8 7 5 3 4 7 6 7 8 7 8 9 8 7 9 10 10 10 9 8 8 9 11 12 12 13 13 15 20 26 28 31 34 34 36 37 39 42 43 41 40 39 39 40 39 38 39 39 38 39 40 40 39 39 38 38 36 35 34 34 33 34
2 1 2 2 5 7 4 5 5 2 3 3 3 8 12 13 14 10 4 4 6 7 9 7 7 6 6 4 5 7 6 7 10 7 5 7 8 7 7 8 9 9 9 10 10 11 12 13 13 14 13 14 20 25 28 31 33 34 36 38 41 42 40 40 40 39 39 39 39 39 40 40 40 40 40 40 39 38 38 38 37 35 34 34 34 34
1 1 1 2 4 4 2 5 4 2 3 5 4 6 11 13 15 12 8 8 7 5 7 8 7 5 7 5 6 8 7 8 10 8 6 8 8 7 7 7 6 7 9 10 10 10 12 12 13 15 14 15 21 26 29 31 33 34 35 37 39 40 38 39 40 39 39 39 39 40 41 41 42 41 40 40 39 38 38 39 39 37 35 34 34 35
2 2 2 0 1 2 3 9 10 5 4 6 8 8 10 12 15 15 14 9 8 6 10 10 8 7 8 7 8 9 8 8 9 9 9 7 7 7 6 5 5 7 8 8 9 10 12 13 14 15 15 15 19 25 28 30 32 34 35 36 38 38 38 39 39 39 39 39 39 40 42 43 42 41 41 40 39 39 39 40 39 38 36 35 35 36
3 2 3 3 6 7 6 10 11 7 5 7 10 12 11 12 16 19 17 10 10 10 14 10 10 10 8 7 9 10 9 10 10 10 7 5 6 7 6 6 7 8 8 9 10 12 13 14 14 15 15 15 17 21 25 27 30 32 33 34 36 37 39 39 39 40 40 39 40 42 43 42 40 40 40 39 39 39 40 40 40 38 37 36 36 37
1 2 3 4 7 9 9 9 8 6 5 7 10 11 12 14 16 18 15 12 12 13 12 8 10 11 9 8 10 10 8 7 6 4 3 5 6 7 7 7 7 7 8 10 11 12 13 14 15 15 15 15 15 18 22 25 28 31 33 34 36 38 40 40 39 39 39 40 42 43 42 40 39 39 39 39 39 40 40 40 39 37 37 38 38 38
1 1 4 4 5 8 9 7 6 8 8 9 10 10 11 13 15 15 13 10 10 11 10 9 9 9 8 6 7 9 5 2 4 5 6 7 7 7 7 8 8 9 9 11 12 11 12 13 13 13 14 15 16 20 24 26 29 32 33 34 36 38 39 39 39 39 40 42 43 42 40 39 39 38 39 40 40 39 39 39 38 38 39 39 39 40
0 1 3 4 3 5 6 6 10 13 12 10 12 11 10 10 10 10 10 9 10 10 10 12 10 8 7 6 7 9 8 6 7 9 9 8 6 5 7 9 9 10 10 10 11 11 12 13 13 13 15 16 18 22 26 28 29 29 31 33 36 38 37 38 38 39 41 42 41 39 38 38 38 38 39 39 39 38 38 38 39 39 39 40 41 41
2 1 1 2 1 5 7 7 10 11 9 8 8 7 8 10 10 9 8 9 11 11 10 12 11 8 8 7 7 9 10 10 10 8 8 7 5 5 8 9 9 10 9 8 8 10 12 13 13 14 16 16 18 24 30 32 30 31 35 38 38 36 35 37 38 39 40 39 37 37 38 37 37 38 38 38 38 37 37 38 39 40 41 41 42 42
3 2 1 1 1 4 9 9 7 5 5 5 2 1 4 8 11 13 13 11 11 12 11 10 8 8 9 9 10 13 13 8 5 4 4 4 4 4 6 8 8 9 9 8 7 9 10 11 11 12 14 17 22 28 31 31 32 34 36 36 34 34 36 38 38 39 38 38 38 39 38 37 38 38 38 38 37 37 37 39 40 41 41 42 41 40
3 2 2 2 2 3 7 6 3 6 7 4 5 5 4 4 3 7 14 16 13 13 13 10 8 9 10 11 13 14 10 3 4 4 4 4 3 2 5 6 6 7 9 8 7 8 9 9 10 10 12 18 24 26 26 28 30 30 29 30 32 34 37 38 38 38 37 36 37 37 37 37 38 38 37 37 37 37 38 39 40 41 41 40 40 40
5 3 3 2 3 2 3 2 4 7 8 8 6 7 7 6 9 9 9 14 11 9 10 10 10 9 9 10 11 8 5 6 5 3 3 3 2 0 3 5 6 7 8 8 8 9 9 9 10 11 13 16 19 21 23 27 29 27 26 30 33 33 34 34 33 33 33 33 35 37 38 38 37 36 35 36 36 36 37 39 40 41 40 39 39 38
9 5 3 3 3 2 3 4 4 6 10 7 3 4 4 2 4 4 4 8 7 3 6 8 10 10 8 8 7 5 6 6 2 1 1 2 2 1 2 4 5 7 7 8 8 8 8 9 12 14 14 13 15 18 21 22 24 24 24 27 29 29 29 29 29 31 32 33 35 36 37 37 35 34 34 34 35 36 38 39 40 40 40 38 37 36
12 9 6 5 4 3 3 4 3 3 5 3 2 1 1 3 4 3 3 6 6 3 2 5 8 10 9 6 5 6 6 5 3 5 3 2 3 3 3 4 4 5 6 7 7 6 7 7 10 15 16 15 16 21 22 21 22 24 23 23 25 26 27 28 30 32 33 34 36 36 36 36 36 35 36 37 39 40 40 41 41 40 40 39 37 36
13 10 6 5 5 4 4 4 3 3 4 5 4 4 4 3 1 4 2 5 5 8 10 7 7 10 10 7 7 8 7 6 7 6 2 2 3 3 3 4 4 4 5 6 6 6 7 7 4 10 14 15 16 19 22 23 24 24 22 23 26 26 27 30 33 35 36 36 36 35 35 36 38 38 39 39 41 41 41 41 41 40 39 39 38 37
12 8 7 7 7 6 6 5 3 3 5 4 3 6 7 3 3 5 3 6 6 12 13 10 10 11 9 7 9 10 8 7 6 4 1 1 2 3 3 4 4 5 5 7 9 8 8 8 4 4 5 7 12 17 20 23 24 22 21 23 23 23 27 32 36 37 37 35 34 34 37 39 40 40 41 41 42 41 40 40 38 37 37 37 36 34
8 7 7 9 8 7 8 5 4 4 4 3 4 7 7 3 3 5 5 4 9 15 13 10 10 9 5 5 7 8 5 3 4 5 4 3 2 2 3 3 2 3 5 7 11 11 11 12 12 11 10 6 5 15 20 22 21 19 20 20 20 24 31 34 33 33 33 32 32 35 38 40 42 43 44 44 43 41 40 40 38 37 36 35 33 32
5 5 7 9 8 6 6 5 4 5 3 2 3 3 4 2 2 3 5 6 10 14 13 10 8 7 4 3 3 3 5 6 7 8 6 5 4 3 4 4 3 5 6 8 12 13 11 12 14 15 16 15 8 7 17 21 19 16 16 17 20 28 31 27 24 26 28 29 31 33 35 38 41 42 42 41 39 38 39 39 38 37 36 34 33 33
3 3 5 8 7 5 4 5 6 5 3 3 3 1 4 1 2 4 7 8 8 12 12 9 7 8 7 3 1 4 8 9 8 8 7 6 6 5 6 6 7 8 8 9 12 14 12 10 12 14 16 17 16 10 5 13 15 15 16 18 24 28 25 21 23 25 26 27 29 32 34 37 39 39 38 36 36 37 37 37 38 37 37 36 34 32
3 4 3 4 5 5 5 6 5 4 3 4 2 2 2 1 3 4 5 5 6 9 9 7 7 8 8 5 2 3 6 7 7 7 7 6 6 7 8 9 9 9 9 10 11 13 13 11 11 14 17 17 18 18 12 5 4 8 11 14 17 19 20 22 24 24 25 27 30 31 34 35 36 37 36 35 37 37 36 36 37 38 38 38 36 33
3 2 3 4 4 4 5 5 3 5 3 1 2 4 5 1 4 5 4 2 3 5 6 6 7 8 9 7 4 2 4 6 6 7 7 7 7 7 9 9 8 8 9 10 11 13 14 12 11 13 16 18 19 18 17 15 10 4 2 6 7 9 16 21 22 23 26 29 30 31 32 33 33 35 36 36 37 37 37 36 35 34 36 37 38 37
7 7 6 5 5 6 7 5 5 6 3 3 4 5 6 4 3 5 5 3 2 3 4 4 5 7 9 9 6 5 5 6 6 6 7 7 7 8 9 9 9 9 9 10 13 14 13 13 13 13 14 16 18 17 16 15 14 10 8 7 5 4 10 16 20 23 25 28 29 31 32 31 32 34 35 36 37 38 38 38 36 34 34 33 33 34
6 6 5 5 6 6 5 3 5 5 4 4 4 5 7 5 2 2 4 5 6 6 5 3 3 5 8 10 9 7 7 7 6 5 6 8 8 8 9 10 10 11 11 13 14 15 13 12 13 13 13 15 17 17 15 14 14 13 11 9 6 3 3 8 15 20 22 25 28 29 30 31 32 32 34 35 37 37 37 36 36 35 33 32 31 29
4 7 7 6 7 6 5 2 3 4 4 3 4 4 5 4 2 3 5 6 8 8 9 7 4 2 5 9 9 8 8 8 7 6 6 6 6 7 7 8 9 10 11 12 14 15 14 13 12 13 13 14 16 16 15 15 16 16 15 13 9 5 3 3 7 13 17 20 23 25 28 31 33 32 32 34 36 36 36 36 35 35 35 36 36 33
6 7 7 6 7 8 9 5 3 4 1 2 5 5 4 3 2 5 7 7 9 9 10 10 9 5 2 8 9 8 7 7 7 5 5 5 5 5 6 7 8 9 9 11 13 14 13 12 13 14 14 14 15 16 16 17 18 18 18 17 14 10 6 4 4 6 8 11 14 17 20 25 28 30 31 33 34 36 37 38 38 38 39 42 45 44
6 7 7 6 6 7 7 5 4 4 2 2 5 7 5 3 4 7 7 5 6 8 9 10 11 8 5 6 9 9 6 5 7 4 2 5 5 5 5 6 7 7 8 10 12 13 13 12 12 12 12 13 15 16 16 17 18 18 18 17 15 12 8 5 4 4 4 4 5 6 8 11 14 16 19 22 25 29 33 36 39 41 42 44 46 48
5 6 6 6 7 8 8 7 4 0 1 3 5 8 6 4 5 8 6 4 5 6 8 9 10 10 8 8 8 10 8 6 9 6 1 5 4 4 6 7 7 8 9 11 11 11 12 12 11 10 10 10 12 13 14 15 16 16 15 15 14 12 9 6 5 4 4 5 5 6 6 6 7 8 9 11 13 16 20 25 31 36 39 41 43 47
Wind_Direction
159 185 213 208 205 195 198 203 199 178 174 209 207 205 231 248 260 258 269 271 263 282 263 237 230 235 217 195 189 177 176 183 181 179 186 190 192 195 197 199 200 204 204 194 194 198 198 199 198 196 196 196 197 198 198 199 201 202 202 203 205 207 208 208 208 209 210 211 213 216 219 223 226 228 232 234 234 234 233 233 234 236 237 239 242 244
164 204 219 206 192 185 189 190 186 189 201 227 239 254 258 250 261 268 264 263 257 277 278 272 255 247 222 202 192 176 180 189 185 184 190 193 195 198 199 200 202 203 195 187 194 197 197 198 198 197 196 195 196 197 198 200 202 203 203 204 205 206 206 208 209 208 209 211 212 214 217 221 224 227 229 231 232 232 233 234 235 237 239 240 243 244
203 223 210 190 181 172 180 178 173 187 194 207 221 232 250 246 268 279 264 268 240 215 273 277 257 257 225 189 189 188 191 196 193 190 192 190 191 195 198 201 201 197 190 193 196 195 195 196 196 197 197 197 198 197 199 201 202 203 204 205 206 206 206 208 210 210 211 213 214 216 218 220 223 227 230 232 233 234 235 236 236 237 238 240 242 242
211 236 191 174 174 171 181 178 167 178 190 196 194 203 236 228 222 272 278 308 273 208 257 269 258 286 259 172 195 204 202 204 205 205 203 194 193 198 199 197 195 193 193 195 197 195 195 195 195 196 198 199 199 198 200 201 201 202 204 206 206 207 207 208 210 212 213 214 215 217 220 223 225 229 233 235 236 236 237 237 236 235 236 238 239 238
221 251 178 164 173 181 191 187 166 173 212 215 202 214 233 208 203 250 286 326 323 296 286 69 341 313 223 185 207 209 207 214 213 212 219 212 206 208 205 202 200 198 197 195 195 195 194 196 197 197 198 198 199 200 201 201 201 203 205 206 207 207 207 209 210 211 211 211 213 214 217 222 225 228 230 231 231 232 234 235 235 234 234 237 238 237
232 240 152 158 175 183 193 205 186 180 211 234 221 220 218 186 205 254 315 355 344 316 280 166 295 297 263 215 216 195 199 214 210 206 213 212 207 210 208 205 206 205 202 200 199 197 196 199 199 199 199 198 200 203 204 203 204 205 206 206 206 206 207 208 210 209 208 209 209 208 209 211 214 218 222 223 224 226 229 231 233 233 235 237 238 238
216 180 146 169 180 179 195 215 201 174 202 242 219 195 188 181 204 227 229 307 282 266 268 177 186 270 303 261 222 190 198 210 208 212 215 209 206 208 207 205 204 204 202 203 204 200 200 201 199 200 200 199 202 205 205 204 205 206 206 206 206 206 207 208 209 208 207 208 208 208 209 210 211 215 221 223 224 226 228 229 231 233 235 237 238 239
167 162 168 180 177 183 203 216 189 166 200 239 156 138 157 175 199 206 194 214 228 253 282 219 170 245 280 254 218 187 200 216 214 220 219 211 211 210 209 207 205 204 200 200 203 201 202 202 201 202 202 202 204 205 204 203 205 206 206 206 206 206 207 207 207 207 208 208 209 209 211 213 215 218 222 224 225 227 229 229 231 233 235 237 238 238
154 172 187 184 182 198 204 197 173 171 206 219 121 132 147 157 180 178 174 216 225 257 274 247 172 221 265 267 219 174 192 219 219 222 222 213 213 212 210 209 207 207 203 201 203 203 203 203 204 206 205 205 206 204 202 202 204 205 205 205 206 206 207 207 207 207 208 210 210 210 210 213 217 221 223 225 225 226 227 228 230 232 233 236 237 237
166 189 189 183 192 209 198 179 172 181 208 201 136 154 119 129 147 136 172 210 176 219 252 246 178 209 268 276 189 169 194 217 219 221 223 217 216 214 211 210 209 208 206 205 206 205 206 206 207 208 207 208 208 205 204 204 203 203 203 203 204 206 206 206 206 206 208 209 210 210 210 213 217 219 220 223 225 225 225 227 228 229 231 233 235 236
240 189 177 182 201 204 191 183 186 187 189 160 151 205 292 347 42 74 146 105 265 256 245 225 183 192 263 248 177 182 199 206 211 220 224 223 223 218 213 211 210 208 206 206 208 208 209 211 211 210 211 212 211 208 207 206 204 203 202 202 204 206 206 205 205 206 207 208 208 210 211 213 215 215 215 216 219 220 220 222 224 227 229 231 233 235
266 134 166 207 202 184 168 193 207 183 176 168 138 145 233 320 0 290 2 82 234 254 229 194 171 175 241 240 189 207 208 198 203 211 214 217 220 218 213 211 209 208 206 205 207 209 208 210 211 209 213 214 211 209 209 207 206 204 203 202 204 206 206 205 205 205 207 207 208 210 211 213 214 213 212 213 216 216 216 219 221 223 226 228 230 233
234 222 218 245 204 174 158 190 214 158 167 181 145 131 169 265 287 212 236 193 232 254 225 175 157 188 241 236 197 211 217 207 206 211 211 212 216 216 212 212 209 204 206 205 205 208 207 207 206 205 210 211 207 207 208 207 206 204 204 203 204 206 206 205 206 206 207 207 208 210 211 213 214 212 212 214 216 216 216 218 219 220 222 225 227 229
227 249 234 222 221 178 166 175 193 177 171 176 164 150 168 188 196 210 230 246 248 263 251 166 149 234 271 252 202 202 211 213 210 213 213 212 213 212 212 211 205 201 204 205 205 206 207 206 203 203 207 207 205 206 206 205 205 204 204 204 205 207 206 205 206 206 207 209 210 211 212 213 213 212 213 214 216 216 216 218 218 220 223 224 226 229
198 239 219 205 203 169 180 192 178 156 163 180 157 138 170 182 178 194 205 215 236 263 275 155 158 213 233 242 217 198 203 209 209 215 215 216 217 214 215 209 200 203 205 205 206 206 208 207 203 204 206 205 205 205 205 205 205 204 204 204 205 207 206 206 206 206 208 209 211 212 212 212 212 213 214 215 217 217 217 218 219 222 224 226 229 231
200 234 229 206 190 165 183 197 156 133 161 191 127 133 206 190 154 193 197 181 181 296 278 210 209 224 210 259 258 216 211 205 205 217 215 219 225 220 220 206 196 205 205 203 207 207 209 208 204 205 205 206 205 204 204 205 205 205 205 205 206 208 208 206 207 207 209 210 211 212 212 212 213 213 214 214 216 218 219 220 221 223 226 228 231 232
189 234 224 152 181 190 186 176 163 165 173 170 152 184 204 139 136 219 246 190 110 260 259 219 250 290 300 283 270 222 220 211 204 214 214 220 226 222 219 204 199 206 203 203 206 206 207 204 203 205 205 205 204 203 203 205 205 206 206 205 206 208 208 208 208 209 210 210 211 212 213 213 212 213 214 214 215 217 218 220 222 225 227 229 231 232
166 243 234 152 195 222 185 161 178 180 150 136 188 194 122 83 141 184 245 278 242 249 275 233 231 270 274 273 270 192 207 223 211 209 215 222 225 224 221 210 205 207 204 206 206 206 205 202 203 205 205 206 204 202 204 205 206 206 206 206 206 207 208 209 210 210 211 211 211 212 213 213 213 213 214 215 216 217 217 219 221 223 226 228 229 231
183 249 262 190 194 207 141 152 191 199 177 170 183 170 130 129 188 163 184 228 222 241 280 278 254 240 210 230 258 198 207 222 219 210 212 220 222 223 223 217 212 210 209 208 206 206 204 203 204 204 205 207 205 204 205 206 205 204 206 207 207 209 210 210 210 210 211 211 211 212 213 213 213 214 215 215 216 216 216 218 220 222 224 226 227 228
212 203 262 238 191 160 132 165 190 211 225 222 131 156 160 169 178 170 179 182 186 224 258 296 290 253 222 202 182 206 218 217 219 215 211 217 219 218 219 217 214 211 209 206 204 206 205 204 205 204 205 205 204 205 205 204 203 203 205 207 208 210 211 211 211 211 212 212 212 213 213 213 213 214 215 215 215 216 217 219 221 221 222 223 224 226
271 193 242 285 159 149 159 197 191 192 210 207 186 194 188 165 154 166 200 168 165 194 200 253 270 257 241 197 178 199 216 213 214 214 214 218 217 216 215 216 216 213 210 207 205 205 204 205 205 204 206 206 204 205 204 201 201 203 205 205 207 209 210 211 212 212 213 213 212 212 212 213 213 213 214 214 215 216 217 219 220 221 222 221 222 224
6 207 229 243 187 185 204 208 196 194 195 190 198 202 190 177 131 147 244 240 175 192 181 193 255 262 248 197 187 197 209 214 214 211 217 223 220 218 216 216 217 214 210 208 207 205 203 202 204 204 205 205 203 202 201 200 201 202 203 204 206 207 209 210 211 211 212 212 212 213 212 212 212 213 213 213 214 215 217 219 220 220 220 220 221 223
350 230 237 233 216 215 229 223 211 209 202 193 201 199 186 176 147 173 228 223 184 222 159 138 255 268 247 195 193 201 207 215 215 208 214 224 224 221 221 222 222 220 218 214 209 206 201 201 203 202 202 201 200 200 198 198 200 201 203 204 205 206 209 211 211 211 211 211 212 213 212 212 211 211 212 212 213 214 216 218 219 219 219 218 219 221
326 266 227 273 306 278 273 290 302 272 202 202 216 199 182 187 187 201 211 172 183 218 169 193 251 268 269 212 202 217 220 225 234 220 215 225 228 223 222 226 227 226 227 220 210 205 202 202 202 200 200 199 199 199 197 197 199 201 203 203 203 207 210 210 210 210 209 210 212 212 211 211 211 211 211 211 213 214 215 217 218 218 218 217 218 219
323 303 171 175 261 243 267 289 299 310 214 213 226 206 199 195 192 205 186 135 208 206 176 202 239 249 281 282 244 251 253 253 254 234 219 231 239 231 226 229 227 227 226 214 203 201 199 199 200 199 200 198 197 197 197 198 199 200 201 202 203 208 210 209 208 208 208 209 210 210 211 211 210 210 211 211 212 213 214 215 217 218 217 216 217 218
247 280 113 149 215 214 220 225 221 264 275 258 230 209 208 200 192 198 188 182 223 205 177 203 237 253 286 293 254 250 252 257 259 254 243 241 241 234 226 226 222 217 216 207 198 196 197 198 201 200 199 198 196 196 196 198 200 200 201 202 204 207 207 206 207 207 207 208 208 209 211 210 210 210 210 210 211 212 213 214 216 217 217 216 216 217
174 12 151 178 219 215 248 253 237 285 288 287 289 231 213 208 201 200 209 208 198 180 200 218 212 233 267 253 232 240 237 244 257 263 256 242 240 238 228 228 227 218 220 212 198 196 196 198 201 201 199 199 197 197 197 198 199 200 201 202 204 206 205 205 206 205 206 207 207 209 210 210 210 210 210 210 210 211 211 213 214 215 215 215 216 217
70 353 305 133 263 259 295 286 280 284 260 261 281 262 229 214 204 206 220 206 150 169 230 229 190 205 246 239 225 230 224 231 248 253 253 246 243 251 252 247 240 235 234 221 203 200 198 199 202 201 200 199 198 198 198 199 200 200 201 203 203 203 204 204 203 204 205 206 207 209 211 211 211 210 210 210 210 210 210 211 213 214 213 214 215 216
109 255 297 13 333 304 292 281 277 278 252 239 255 258 249 232 214 214 220 197 162 202 236 225 185 198 232 234 229 228 213 216 230 231 234 242 244 253 261 253 237 232 231 221 210 204 200 201 202 200 200 198 196 197 197 198 200 200 201 203 202 202 203 203 202 203 204 205 207 210 211 210 210 209 209 209 209 209 209 210 212 211 211 212 213 216
123 259 315 355 329 308 293 279 274 280 279 267 262 257 254 247 232 226 224 206 198 222 241 221 187 197 218 219 223 230 215 210 228 224 205 226 240 248 258 261 252 238 230 226 222 214 207 205 203 200 199 196 194 196 196 197 198 198 200 201 200 202 203 201 201 202 203 205 208 210 210 209 208 208 207 208 208 208 208 209 210 209 210 212 213 215
33 312 330 359 343 306 295 298 302 302 299 286 272 262 257 257 250 241 233 216 212 226 239 234 206 210 239 243 238 251 263 289 286 268 243 236 237 238 245 253 250 239 229 224 223 220 215 213 209 201 198 196 196 195 195 197 198 198 200 199 199 201 201 199 200 201 203 207 209 209 208 207 206 206 206 207 207 207 207 207 207 208 210 211 212 214
352 279 340 24 9 293 292 325 325 317 313 289 267 262 257 251 252 250 234 214 210 211 223 236 229 225 246 253 256 267 281 281 260 253 251 253 258 253 245 245 245 241 234 226 222 220 217 216 211 203 201 201 198 196 196 197 196 197 199 199 201 201 199 198 200 202 205 208 208 207 206 206 205 205 206 206 206 205 206 206 207 208 209 210 212 213
221 203 341 29 15 285 288 314 324 321 314 282 262 263 252 235 233 245 245 229 216 203 209 228 227 216 212 209 227 252 256 252 247 244 246 254 269 264 250 250 253 253 249 237 227 221 220 219 212 208 207 204 199 200 200 196 193 196 199 200 200 197 195 197 201 203 206 207 206 206 206 204 203 204 205 205 205 204 204 204 206 208 209 210 212 213
226 185 196 151 120 278 288 312 329 302 261 252 263 325 271 247 233 233 237 235 219 211 224 236 221 204 198 185 198 226 237 238 228 208 198 210 229 254 263 266 267 270 271 259 238 228 227 225 219 214 211 208 206 206 204 199 198 200 201 198 196 194 194 198 201 203 206 205 204 205 204 203 203 204 205 204 203 203 203 204 207 208 210 212 212 212
245 207 208 166 147 262 296 330 317 234 240 291 344 357 334 314 308 258 241 234 223 218 232 245 234 215 202 192 205 220 220 170 121 124 129 147 175 227 274 278 278 282 282 274 259 241 229 223 222 219 212 211 210 206 202 202 202 202 199 195 194 195 196 198 200 203 204 204 204 204 202 202 203 203 203 202 202 202 203 205 208 209 211 212 212 212
216 215 218 195 174 230 295 302 227 244 293 320 337 354 2 14 14 352 272 247 239 221 219 233 241 235 217 208 214 213 170 122 102 101 118 111 107 157 283 290 300 303 295 290 279 257 235 217 212 214 214 214 211 205 201 203 201 197 194 194 195 197 198 198 200 203 203 203 203 203 202 202 202 201 201 201 201 202 204 206 209 210 211 212 214 214
201 201 200 203 198 186 224 253 260 300 318 320 341 14 21 0 346 348 265 269 277 235 207 220 233 245 243 224 209 181 141 121 97 265 217 53 35 329 287 290 298 303 300 295 285 273 261 234 213 210 210 206 202 202 203 203 199 194 192 193 194 196 196 198 201 203 204 204 204 203 203 201 199 199 199 200 201 203 206 208 210 211 211 212 213 214
200 199 187 190 202 183 208 263 289 310 295 258 236 315 290 262 260 179 181 283 305 342 308 246 231 238 240 218 182 163 138 134 193 239 260 355 356 341 328 309 300 304 303 301 304 310 309 281 230 211 203 195 195 200 200 196 192 191 191 191 192 193 193 198 203 204 204 206 205 204 202 200 199 199 199 200 202 204 206 209 210 211 211 212 212 213
205 214 211 205 201 179 192 227 231 240 246 233 248 286 292 282 218 125 150 273 309 0 349 316 268 249 235 200 164 151 144 169 215 236 255 331 336 344 338 318 314 312 302 313 332 333 325 317 255 206 196 191 194 196 193 190 187 186 189 191 191 192 196 201 204 204 205 206 205 203 201 200 200 201 201 202 205 206 207 208 210 211 212 212 213 213
202 217 229 228 214 190 195 219 228 238 251 259 298 312 312 315 118 129 210 259 316 342 334 314 291 271 247 207 169 161 172 196 203 202 177 17 342 337 333 318 315 322 329 344 355 358 1 15 54 142 162 180 192 191 187 186 186 186 191 194 193 197 204 207 207 205 206 205 203 201 200 201 202 203 203 205 206 207 208 209 210 211 212 213 213 213
201 207 219 229 226 205 201 223 255 255 252 272 302 311 321 354 112 162 212 273 321 321 314 307 298 286 258 218 193 181 191 184 130 118 103 65 41 6 348 327 306 339 357 4 8 15 28 41 55 62 52 50 174 189 186 183 184 191 193 191 195 206 211 212 210 207 206 204 202 202 202 202 203 205 206 208 207 205 207 208 209 210 210 211 213 212
199 201 211 217 225 218 199 209 246 258 258 251 258 304 355 50 167 230 282 314 318 311 311 314 314 322 335 279 231 168 137 118 102 102 100 76 62 42 15 20 47 36 24 22 22 25 35 44 49 49 41 37 52 170 187 184 182 188 188 190 205 214 214 214 212 209 207 205 203 204 204 205 207 208 209 210 207 205 206 207 207 208 209 209 210 210
206 223 224 206 208 215 197 200 219 230 239 238 232 6 32 64 225 284 312 322 324 321 321 324 336 355 11 11 17 107 120 118 103 97 92 71 61 53 33 32 44 40 31 28 26 27 34 42 43 41 37 37 44 57 152 184 185 185 186 200 215 218 214 214 213 210 208 206 206 207 208 209 210 210 211 210 208 207 207 205 204 205 206 206 207 208
213 211 231 213 205 200 196 205 203 185 208 238 213 116 104 232 271 288 300 320 337 332 324 328 351 12 27 33 33 87 101 101 100 99 89 74 65 60 49 41 38 38 37 33 26 27 35 45 43 38 37 37 40 45 51 72 172 194 201 218 229 223 214 213 212 209 208 209 209 210 211 211 212 212 212 211 208 208 209 207 205 204 203 202 201 203
249 265 297 281 259 248 239 227 165 134 162 210 122 123 131 132 305 293 280 298 345 333 328 334 348 14 33 25 354 16 61 70 84 90 86 84 74 63 59 55 46 44 47 44 37 33 38 46 49 46 42 36 34 38 42 44 46 42 306 294 284 244 220 213 209 207 208 210 212 213 213 214 214 214 213 211 209 208 209 208 207 206 204 202 199 199
285 296 293 281 289 285 262 230 142 127 147 148 128 124 112 83 349 316 312 320 327 323 331 352 357 14 37 38 15 4 19 38 60 69 69 70 64 53 52 52 46 44 48 48 44 41 45 49 49 50 47 38 35 36 38 42 46 40 17 358 343 267 228 217 211 209 210 211 213 214 213 213 214 215 215 214 211 211 211 209 207 206 207 206 205 204
293 309 300 274 280 279 251 196 126 134 164 155 134 113 96 86 45 3 351 334 328 326 327 356 31 40 56 57 40 12 0 12 30 44 52 56 53 47 44 41 39 37 37 38 37 38 45 50 48 48 46 38 34 35 36 39 39 33 25 21 21 3 254 226 218 217 215 214 215 215 213 213 214 215 215 214 213 214 214 212 209 207 206 205 206 208
307 339 334 295 276 270 263 259 108 135 167 154 129 108 100 112 120 65 35 355 341 337 330 328 334 42 82 76 60 27 356 353 4 19 37 46 45 46 47 45 44 43 40 38 34 33 37 40 40 43 43 38 33 32 34 35 33 28 25 22 16 6 336 263 234 230 228 225 223 219 215 215 215 215 214 215 215 215 215 213 211 209 208 206 204 202
281 297 295 286 287 282 270 252 146 129 139 120 119 109 100 117 114 76 55 19 352 343 340 333 321 318 72 92 86 61 10 338 334 351 21 41 39 41 47 48 49 49 46 44 43 41 42 40 37 36 33 29 29 30 31 32 30 27 25 21 15 8 357 335 295 265 253 246 241 233 227 224 222 220 218 217 216 217 217 215 212 211 212 212 209 205
265 265 260 264 276 274 262 238 178 157 191 181 142 121 114 134 116 89 74 48 10 351 348 338 323 325 13 65 82 80 53 331 300 299 41 66 55 48 49 49 50 50 45 46 49 49 48 46 43 41 36 28 29 32 32 32 32 29 25 21 17 13 7 352 333 313 296 292 284 270 259 253 247 243 239 234 229 225 222 219 216 215 215 215 213 210
244 258 262 258 260 271 283 288 285 156 166 199 155 126 135 176 126 97 82 62 49 23 3 346 329 333 357 22 48 65 53 337 294 276 109 78 63 60 61 57 57 55 46 44 48 48 46 44 42 41 36 30 34 40 39 36 34 28 22 17 14 12 12 11 7 3 0 0 359 356 349 339 329 318 301 286 276 261 244 231 224 220 219 219 215 210